Flag for Canada Weather past 2 weeks in Clarington, Ontario, Canada

Now
59 °F

Passing clouds.


Feels Like: 60 °F
Forecast: 46 / 62 °F
Wind: 3 mph from Northwest

Location: Peterborough Airport

Current Time: May 4, 2015 at 10:20:03 PM

Latest Report: May 4, 2015 at 10:00 PM


Visibility: 9 mi

Pressure: 30.14 "Hg

Humidity: 88%

Dew point: 55 °F

Location of ClaringtonLocation

Historic Weather in Clarington — Graph

°F

Clarington temperature yesterday

Maximum temperature yesterday: 77 °F (at 3:00 PM)
Minimum temperature yesterday: 41 °F (at 4:00 AM)
Average temperature yesterday: 61 °F

Past Weeks' High & Low Weather Summary

 TemperatureHumidityPressure
High77 °F (May 3, 3:00 PM)100% (Apr 20, 9:00 AM)30.10 "Hg (Apr 20, 9:00 AM)
Low25 °F (Apr 25, 6:00 AM)27% (May 3, 1:00 PM)29.42 "Hg (Apr 20, 4:51 PM)
Average48 °F69%29.83 "Hg
* Reported Apr 19 9:00 PM — May 4 9:00 PM, Clarington, Weather by CustomWeather, © 2015

Note: Actual official high and low records may vary slightly from our data, if they occured in-between our weather recording intervals... More about our weather records

Advertising

Clarington weather history for previous 24 hours

 ConditionsComfort  
Time TempWeatherWind HumidityBarometerVisibility
9:00 PM
Mon, May 4
61 °FOvercast.10 mph83%30.10 "Hg9 mi
8:00 PM61 °FScattered clouds.9 mph83%30.06 "Hg9 mi
7:00 PM63 °FCloudy.8 mph83%30.04 "Hg9 mi
6:00 PM61 °FOvercast.3 mph94%30.03 "Hg9 mi
5:03 PM61 °FOvercast.5 mph88%30.03 "Hg9 mi
4:00 PM64 °FLight rain. Overcast.6 mph73%30.03 "Hg9 mi
3:00 PM68 °FMostly cloudy.8 mph53%30.02 "Hg9 mi
2:00 PM70 °FOvercast.12 mph46%30.01 "Hg9 mi
1:02 PM70 °FLight rain. Overcast.17 mph46%30.02 "Hg9 mi
12:00 PM75 °FPartly sunny.14 mph39%30.01 "Hg9 mi
11:00 AM75 °FSunny.12 mph39%30.01 "Hg9 mi
10:00 AM72 °FSunny.12 mph41%30.03 "Hg9 mi
9:00 AM68 °FSunny.9 mph46%30.04 "Hg9 mi
8:00 AM63 °FScattered clouds.12 mph52%30.04 "Hg9 mi
7:00 AM57 °FOvercast.7 mph63%30.04 "Hg9 mi
6:00 AM46 °FPassing clouds.7 mph93%30.03 "Hg9 mi
5:00 AM45 °FPassing clouds.No wind93%30.03 "Hg9 mi
4:00 AM46 °FClear.No wind87%30.04 "Hg9 mi
3:00 AM46 °FClear.No wind93%30.04 "Hg9 mi
2:00 AM54 °FClear.6 mph63%30.04 "Hg9 mi
1:00 AM50 °FClear.3 mph82%30.03 "Hg9 mi
12:00 AM52 °FPassing clouds.2 mph77%30.03 "Hg9 mi
11:00 PM
Sun, May 3
57 °FClear.2 mph59%30.03 "Hg9 mi
10:00 PM59 °FPassing clouds.7 mph55%30.03 "Hg9 mi
Weather by CustomWeather, © 2015

See weather overviewHow to use our weather pages